Location: Gad�tanya
(48.0500°N, 20.8500°E)
Time: 23:06:08
(UTC+00:00)

Cosmos 2278 Rocket - Pass Details

Date: 05 July 2020
Orbit: 841 x 846 km, 71.0° (Epoch: 05 August)

Event Time Altitude Azimuth Distance (km) Brightness Sun altitude
Rises 21:01:34 0° 331° (NNW) 3,416 7.2 -15.8°
Reaches altitude 10° 21:04:02 10° 330° (NNW) 2,477 6.0 -16.0°
Maximum altitude 21:09:42 77° 245° (WSW) 870 2.2 -16.3°
Enters shadow 21:12:56 27° 164° (SSE) 1,579 3.0 -16.5°
